STARLINK-1979 (47577 NORAD) Tracking and Keplerian Element Data

This shows tracking and keplerian element data for the satellite.

Feedback or suggestion? Click here.




ElementValue
Catalog47577
NameSTARLINK-1979
Epoch Orbit177
Epoch Day101.91668981
Epoch Year2021
RAAN157.5487
Inclination53.0539
Eccentricity0.0004122
Argument of Perigee12.4821
Mean Anonmoly233.2239
Mean Motion15.62772156
Decay Rate5.739E-05
L11 47577U 21009AF 21101.91668981 .00005739 00000-0 68433-4 0 9997
L22 47577 53.0539 157.5487 0004122 12.4821 233.2239 15.62772156 1772

Live tracking and technical data element details for STARLINK-1979 (NORAD 47577). STARLINK-1979 can be tracked NOW for your location showing map with azimuth and elevation plus other details from your city location.

Track the satellite on the map from your city or location and see movement details for azimuth, elevation, latitude, longitude, range, height, and movement on the map or in text.







IsCatalogInMostPopularTable: catalog: 47577, numindb: 18
Update: records affected: 1



GetName: 47577 STARLINK-1979

Hit Count: updated at: Tue, 13 Apr 2021 05:06:30 GMT